Details From LPMA - Madeira
To LPFR - Faro
Flight Number -
Tags decoded
Created
Modified
Stats Distance 505 nm / 935 km
Max Altitude 0 ft / 0 m
Waypoints 2
Social Downloads 3
Likes 0
Share

Download

Looking for another format? Having issues loading an existing format? Contact us
Advertisement - Login to hide

Notes

Requested: LPMA LPFR

Route

LPMA LPFR

ID Type Via Altitude (ft/m) Position (lat/lon) Dist (leg/tot) Name
O LPMA APT - 0 / 0 32.69770 / -16.77445 - / 0 nm Madeira
O LPFR APT - 0 / 0 37.01534 / -7.97233 505 / 505 nm Faro

Altitude Profile

Advertisement - Login to hide

Weather


0- 5 10 15 20 25 30 35+ Temperature / °C

Clouds and Precipitation
Forecast for 2024-02-27 18:00 UTC. Updated 5 hours ago

Ground ~20,000 ft ~40,000 ft Winds

LPMA

Details ICAO LPMA (FNC)
Name Madeira/Funchal - Cristiano Ronaldo
Region Portugal
Timezone Atlantic/Madeira (UTC+0.0)
Stats Elevation 189 ft / 58 m (AMSL)
Location 32.697900° -16.774400°
Runways 1
Magnetic Variation 4.222° W

METAR

LPMA 272030Z 01015G25KT 340V040 9999 SCT015 17/09 Q1029

Decode

TAF

TAF LPMA 271700Z 2718/2818 02017KT 9999 SCT015 TEMPO 2718/2818 02020G32KT BKN015

Decode

Departure Runways

ID Width Length Bearing (true/mag) Surface Threshold Overrun Markings Lighting
05 148 ft / 45 m 9,133 ft / 2,784 m 44.60° / 48.82° ASPHALT 482 ft / 147 m 0 ft / 0 m PREC-APP CENTERLINE EDGE THRESHOLD TDZ REIL-OMNI
23 148 ft / 45 m 9,133 ft / 2,784 m 224.61° / 228.83° ASPHALT 482 ft / 147 m 0 ft / 0 m PREC-APP CENTERLINE EDGE THRESHOLD TDZ REIL-OMNI

LPFR

Details ICAO LPFR (FAO)
Name Faro
Region Portugal
Timezone Europe/Lisbon (UTC+0.0)
Stats Elevation 22 ft / 7 m (AMSL)
Location 37.015300° -7.972320°
Runways 1
Magnetic Variation 1.199° W

METAR

LPFR 272030Z 33009KT CAVOK 13/03 Q1024

Decode

TAF

TAF LPFR 271700Z 2718/2818 35012KT CAVOK BECMG 2810/2812 20008KT BECMG 2816/2818 30008KT

Decode

Destination Runways

ID Width Length Bearing (true/mag) Surface Threshold Overrun Markings Lighting
10 148 ft / 45 m 8,179 ft / 2,493 m 100.08° / 101.27° ASPHALT 148 ft / 45 m 0 ft / 0 m PREC-APP EDGE THRESHOLD REIL-OMNI
28 148 ft / 45 m 8,179 ft / 2,493 m 280.09° / 281.29° ASPHALT 144 ft / 44 m 0 ft / 0 m PREC-APP EDGE THRESHOLD REIL-OMNI

Approach Navaids

Runway Type Ident Frequency Range Bearing (true/mag) Slope Elevation
28 LOC-ILS IIF 109.50 MHz 18 nm / 33 km 280.08° / 281.28 ° - 22 ft / 7 m (AMSL)
28 GS IIF 109.50 MHz 10 nm / 19 km 280.17° / 281.37 ° 3.00° 24 ft / 7 m (AMSL)
28 DME IIF 109.50 MHz 18 nm / 33 km - - 24 ft / 7 m (AMSL)

Popular Alternatives